User: anonymous
Location: Unspecified
(0.0000°N, 0.0000°E)
Time: 10:12:24
(UTC+02:00)
Language:

Cosmos 1263 Rocket - Orbit

View from above orbital plane
View from above orbital plane
View from above satellite
View from above satellite

Ground track
Ground track

The orbit data is extracted from the following two-line orbital elements,

1 12389U 81033B   14264.79387729  .00056031  00000-0  74653-3 0   913
2 12389 082.8751 014.1238 0191291 125.9408 353.3422 15.39237220724556
Epoch (UTC): 21 September 2014 19:03:10
Eccentricity: 0.0191291
inclination: 82.8751°
perigee height: 318 km
apogee height: 579 km
right ascension of ascending node: 14.1238°
argument of perigee: 125.9408°
revolutions per day: 15.39237220
mean anomaly at epoch: 353.3422°
orbit number at epoch: 72455

The dashed part of the orbit path shows where the satellite is in the earth's shadow,  

DLR